Aurora, IL

5:05 AM CST on December 17, 2017 (GMT -0600)
Aurora Municipal

Weather History for KARR - March, 2013

Change the Weather History Date:

Tuesday, March 19, 2013

  Actual Average Record
Temperature  
Mean Temperature 24 °F 38 °F  
Max Temperature 32 °F 49 °F 77 °F (2012)
Min Temperature 16 °F 28 °F 16 °F (2013)
Degree Days  
Heating Degree Days 41 27  
Month to date heating degree days 704 581  
Since 1 July heating degree days 5533 5719  
Cooling Degree Days 0 0  
Month to date cooling degree days 0 0  
Year to date cooling degree days 0 0  
Moisture  
Dew Point 14 °F    
Average Humidity 64    
Maximum Humidity 74    
Minimum Humidity 54    
Precipitation  
Precipitation T in 0.07 in 0.68 in (2003)
Month to date precipitation 1.35 1.31  
Year to date precipitation 6.22 4.40  
Sea Level Pressure  
Sea Level Pressure 29.98 in    
Wind  
Wind Speed 25 mph (West)    
Max Wind Speed 35 mph    
Max Gust Speed 41 mph    
Visibility 10 miles    
Events      
T = Trace of Precipitation, MM = Missing Value Source: NWS Daily Summary

Daily Weather History Graph

Daily Weather History Graph

Search for Another Location

Airport or City:

Trip Planner

Search our weather history database for the weather conditions in past years. The results will help you decide how hot, cold, wet, or windy it might be!

Date:

Astronomy

Mar. 19, 2013 Rise Set
Actual Time 6:58 AM CDT 7:05 PM CDT
Civil Twilight 6:30 AM CDT 7:33 PM CDT
Nautical Twilight 5:58 AM CDT 8:05 PM CDT
Astronomical Twilight 5:25 AM CDT 8:38 PM CDT
Moon 11:43 AM CDT (3/19) 1:56 AM CDT (3/19)
Length of Visible Light 13h 02m
Length of Day
12h 06m
Waxing Crescent, 50% of the Moon is Illuminated
Mar 19
Waxing Crescent
Mar 19
First Quarter
Mar 27
Full
Apr 2
Last Quarter
Apr 10
New

Hourly Weather History & Observations

Time (CDT) Temp. Windchill Dew Point Humidity Pressure Visibility Wind Dir Wind Speed Gust Speed Precip Events Conditions
12:39 AM 19.4 °F 0.8 °F 12.2 °F 74% 29.81 in 10.0 mi West 28.8 mph 39.1 mph N/A   Partly Cloudy
1:15 AM 19.4 °F 1.1 °F 12.2 °F 74% 29.81 in 10.0 mi West 27.6 mph 34.5 mph N/A   Mostly Cloudy
1:52 AM 19.9 °F 1.5 °F 12.0 °F 71% 29.85 in 10.0 mi West 28.8 mph 38.0 mph N/A   Overcast
2:52 AM 19.0 °F 2.0 °F 12.0 °F 74% 29.84 in 10.0 mi West 23.0 mph 29.9 mph 0.00 in   Overcast
3:52 AM 18.0 °F 0.6 °F 10.9 °F 74% 29.87 in 10.0 mi West 23.0 mph 28.8 mph N/A   Overcast
4:52 AM 18.0 °F 0.2 °F 10.9 °F 74% 29.88 in 10.0 mi West 24.2 mph 31.1 mph N/A   Mostly Cloudy
5:06 AM 17.6 °F -0.3 °F 10.4 °F 73% 29.85 in 10.0 mi West 24.2 mph 29.9 mph N/A   Partly Cloudy
5:52 AM 17.1 °F -2.7 °F 10.0 °F 74% 29.89 in 10.0 mi West 29.9 mph 35.7 mph N/A   Partly Cloudy
6:52 AM 17.1 °F 0.6 °F 9.0 °F 71% 29.91 in 10.0 mi West 19.6 mph 32.2 mph N/A   Clear
7:52 AM 17.1 °F -1.4 °F 9.0 °F 71% 29.92 in 10.0 mi West 25.3 mph 39.1 mph N/A   Clear
8:52 AM 18.0 °F -1.7 °F 10.0 °F 71% 29.95 in 10.0 mi West 31.1 mph 39.1 mph N/A   Clear
9:52 AM 19.9 °F 1.8 °F 10.9 °F 68% 29.96 in 10.0 mi West 27.6 mph 38.0 mph N/A   Partly Cloudy
10:52 AM 21.9 °F 3.4 °F 12.0 °F 66% 29.99 in 10.0 mi West 32.2 mph 40.3 mph N/A   Clear
11:52 AM 25.0 °F 9.2 °F 14.0 °F 63% 30.02 in 10.0 mi West 25.3 mph 33.4 mph N/A   Clear
12:52 PM 28.0 °F 12.5 °F 16.0 °F 61% 30.03 in 10.0 mi West 28.8 mph 35.7 mph N/A   Clear
1:52 PM 28.9 °F 14.3 °F 17.1 °F 61% 30.04 in 10.0 mi West 26.5 mph 33.4 mph N/A   Clear
2:52 PM 30.0 °F 16.0 °F 18.0 °F 61% 30.05 in 10.0 mi West 25.3 mph 41.4 mph N/A   Clear
3:52 PM 30.9 °F 16.9 °F 19.0 °F 61% 30.06 in 10.0 mi West 26.5 mph 33.4 mph N/A   Clear
4:52 PM 32.0 °F 18.6 °F 18.0 °F 56% 30.07 in 10.0 mi West 25.3 mph 35.7 mph N/A   Clear
5:52 PM 30.9 °F 17.2 °F 18.0 °F 59% 30.09 in 10.0 mi West 25.3 mph 33.4 mph N/A   Clear
6:52 PM 28.9 °F 14.8 °F 18.0 °F 64% 30.10 in 10.0 mi West 24.2 mph 31.1 mph N/A   Partly Cloudy
7:52 PM 28.0 °F 14.3 °F 18.0 °F 66% 30.11 in 10.0 mi West 21.9 mph 29.9 mph N/A   Clear
8:52 PM 27.0 °F 13.5 °F 18.0 °F 69% 30.12 in 10.0 mi West 19.6 mph 28.8 mph N/A   Clear
9:52 PM 26.1 °F 12.3 °F 18.0 °F 71% 30.13 in 10.0 mi West 19.6 mph - N/A   Scattered Clouds
10:52 PM 26.1 °F 11.3 °F 16.0 °F 66% 30.12 in 10.0 mi West 23.0 mph 29.9 mph N/A   Overcast
11:52 PM 25.0 °F 13.1 °F 16.0 °F 69% 30.11 in 10.0 mi West 13.8 mph - N/A   Overcast